Date,TemperatureHighF,TemperatureAvgF,TemperatureLowF,DewpointHighF,DewpointAvgF,DewpointLowF,HumidityHigh,HumidityAvg,HumidityLow,PressureMaxIn,PressureMinIn,WindSpeedMaxMPH,WindSpeedAvgMPH,GustSpeedMaxMPH,PrecipitationSumIn
2013-1-1,51.2,48.2,41.1,50.7,46.0,39.2,99,92,74,30.08,29.93,21,3,21,1.79
2013-1-2,40.9,38.0,35.4,40.6,36.8,34.8,99,95,91,30.20,30.03,14,4,14,0.00
2013-1-3,43.4,36.8,33.5,35.2,33.1,30.6,99,87,61,30.31,30.17,15,5,15,0.00
2013-1-4,47.1,33.8,26.1,29.7,26.3,23.7,95,76,42,30.44,30.35,8,2,14,0.01
2013-1-5,49.9,35.8,26.3,38.5,30.7,24.6,96,84,39,30.41,30.26,7,1,8,0.07
2013-1-6,48.9,41.2,35.6,40.4,37.8,32.1,98,88,67,30.31,30.18,15,3,15,0.03
2013-1-7,54.0,39.8,27.9,35.3,31.3,26.2,95,74,41,30.39,30.27,12,3,12,0.00
2013-1-8,57.4,46.8,34.6,46.2,39.2,30.3,85,75,62,30.36,30.24,15,4,15,0.00
2013-1-9,59.4,53.7,49.3,55.6,50.9,44.9,96,90,82,30.38,30.26,15,4,15,0.15
2013-1-10,65.5,60.3,57.1,62.0,58.1,53.5,97,92,85,30.34,30.01,29,7,29,0.04
2013-1-11,66.1,64.1,62.2,64.0,62.1,60.6,99,93,85,30.11,30.03,24,6,24,0.23
2013-1-12,69.4,67.1,63.7,65.8,62.8,59.3,99,86,83,30.07,29.92,16,5,18,0.03
2013-1-13,68.6,64.4,62.2,64.4,61.8,59.2,95,92,84,29.99,29.89,25,7,25,0.00
2013-1-14,45.1,39.8,37.0,44.6,39.3,36.5,98,98,97,30.24,30.07,13,6,15,2.22
2013-1-15,48.1,43.8,40.3,47.9,43.5,39.8,100,99,98,30.13,29.91,13,3,13,1.39
2013-1-16,48.4,42.2,39.6,48.4,41.9,39.1,100,99,97,30.07,29.90,13,4,13,0.20
2013-1-17,43.5,38.2,33.4,41.8,36.6,31.0,99,94,81,30.39,29.83,26,6,26,0.30
2013-1-18,50.9,37.4,29.8,38.4,32.6,28.9,98,84,51,30.57,30.39,10,2,10,0.15
2013-1-19,56.4,43.7,29.4,35.1,31.9,27.7,96,65,40,30.43,30.21,13,2,13,0.00
2013-1-20,59.2,45.0,32.5,40.6,35.7,30.5,95,72,41,30.24,30.12,11,2,11,0.00
2013-1-21,48.2,38.5,30.4,38.4,27.2,18.5,98,68,37,30.24,30.10,21,4,21,0.00
2013-1-22,40.7,33.0,25.6,24.2,18.5,14.7,74,56,37,30.39,30.23,18,3,18,0.00
2013-1-23,55.2,43.9,32.9,40.0,31.8,22.8,79,63,46,30.39,30.18,20,4,20,0.00
2013-1-24,47.9,43.8,34.7,41.8,27.7,13.5,80,55,29,30.34,30.17,18,5,18,0.00
2013-1-25,49.8,42.7,36.5,43.8,33.0,12.8,98,71,36,30.29,30.07,20,4,20,0.06
2013-1-26,53.6,43.3,36.0,42.4,35.6,27.9,97,77,39,30.32,30.16,14,3,14,0.00
2013-1-27,51.5,46.3,39.3,40.1,37.2,34.1,91,71,64,30.38,30.28,16,4,16,0.00
2013-1-28,62.4,52.6,45.3,54.4,46.3,34.6,93,80,62,30.34,30.18,19,4,19,0.00
2013-1-29,68.0,59.9,50.5,63.5,57.4,48.9,98,92,84,30.18,29.77,24,5,24,0.00
2013-1-30,69.5,55.1,37.5,65.8,52.1,29.3,98,90,72,29.92,29.54,36,10,36,1.61
2013-1-31,48.8,39.4,30.9,30.4,27.8,24.8,86,64,41,30.17,29.92,24,8,24,0.00
2013-2-1,41.7,32.4,25.7,34.4,19.0,8.7,80,59,32,30.43,30.12,22,5,22,0.00
2013-2-2,40.1,33.4,22.6,38.0,26.4,15.3,98,76,56,30.37,30.15,13,2,13,0.22
2013-2-3,53.7,43.2,34.5,39.4,32.5,27.0,98,70,37,30.16,30.05,26,7,26,0.00
2013-2-4,49.4,40.1,30.1,35.9,31.3,27.8,93,72,46,30.13,29.96,11,2,11,0.00
2013-2-5,55.7,48.1,41.8,51.2,44.4,34.9,98,87,66,30.05,29.93,12,2,12,0.01
2013-2-6,64.9,49.3,37.2,50.5,39.9,36.5,99,75,36,30.18,30.05,10,1,10,0.00
2013-2-7,53.6,49.4,46.1,48.5,44.9,35.2,97,86,51,30.10,29.92,16,4,16,0.25
2013-2-8,51.4,44.8,33.5,48.9,42.1,31.1,98,91,72,30.25,29.90,21,5,21,0.29
2013-2-9,61.4,44.9,29.0,35.8,31.9,27.3,95,65,29,30.32,30.16,13,4,13,0.00
2013-2-10,55.6,52.0,48.1,55.0,43.9,32.1,98,76,51,30.18,29.95,24,6,24,1.21
2013-2-11,56.9,52.7,44.2,55.9,48.5,39.8,99,86,59,30.15,29.96,14,2,14,0.04
2013-2-12,50.3,45.2,39.6,43.0,39.5,33.0,95,82,52,30.15,29.76,20,4,20,0.25
2013-2-13,47.0,44.0,37.7,46.5,41.5,35.6,98,91,82,30.02,29.69,23,7,23,0.03
2013-2-14,55.6,44.6,35.1,41.4,37.5,33.4,95,77,51,30.10,30.01,14,2,14,0.00
2013-2-15,58.7,46.1,34.8,44.1,37.7,31.7,97,74,47,30.12,30.01,20,4,20,0.00
2013-2-16,40.3,34.5,27.5,31.9,22.7,15.3,79,63,38,30.22,30.03,27,6,27,0.00
2013-2-17,47.2,35.6,22.2,22.2,18.1,13.1,79,51,31,30.33,30.22,16,3,16,0.00
2013-2-18,59.6,47.4,32.2,37.0,28.4,19.7,66,48,37,30.29,29.93,31,8,31,0.00
2013-2-19,53.3,45.3,35.5,46.0,33.1,19.1,98,66,32,30.22,29.91,27,7,27,0.40
2013-2-20,44.0,37.0,29.1,26.0,21.2,11.3,84,54,27,30.27,30.16,11,4,14,0.00
2013-2-21,56.1,44.5,31.0,45.6,30.1,17.7,96,61,23,30.18,29.86,24,5,24,1.42
2013-2-22,46.9,45.7,44.2,45.7,44.7,43.4,98,96,93,30.08,29.92,20,5,20,0.12
2013-2-23,54.2,46.4,41.3,50.4,45.3,40.8,99,96,85,30.01,29.86,10,3,10,0.20
2013-2-24,59.0,44.8,30.3,41.5,35.8,29.8,99,75,36,30.08,29.93,12,2,13,0.01
2013-2-25,55.1,46.8,41.3,43.4,36.3,30.3,95,68,53,29.95,29.53,34,8,34,0.32
2013-2-26,48.9,43.9,40.2,45.3,39.9,34.8,98,86,69,29.80,29.48,31,9,34,0.44
2013-2-27,56.4,46.0,39.5,39.5,35.2,31.7,84,67,45,29.92,29.80,26,8,26,0.00
2013-2-28,40.4,37.9,35.6,36.0,30.4,27.3,90,75,61,30.05,29.87,23,7,23,0.00
2013-3-1,40.1,36.6,33.9,33.2,30.9,27.6,92,80,70,30.07,30.00,18,6,18,0.00
2013-3-2,36.2,33.6,30.7,31.8,30.1,25.9,95,87,76,30.12,30.01,20,7,20,0.03
2013-3-3,42.4,33.5,28.6,26.5,22.6,17.4,85,66,37,30.16,30.09,20,6,20,0.01
2013-3-4,55.7,44.2,28.2,40.0,28.6,20.5,89,56,36,30.18,29.93,19,4,19,0.00
2013-3-5,61.7,50.1,36.7,57.4,45.1,29.6,93,83,62,30.00,29.65,37,10,37,0.40
2013-3-6,42.1,36.0,30.6,31.3,26.8,21.0,86,69,57,30.27,29.98,34,9,34,0.00
2013-3-7,52.4,39.0,27.4,34.7,30.5,24.7,92,73,48,30.34,30.24,13,4,13,0.00
2013-3-8,62.2,44.9,27.9,35.5,29.3,23.6,93,60,26,30.36,30.22,16,3,16,0.00
2013-3-9,63.4,51.2,35.6,38.8,33.8,28.1,87,53,38,30.27,30.06,18,4,18,0.00
2013-3-10,72.3,61.9,51.8,48.4,40.4,34.2,58,46,35,30.10,29.90,25,7,25,0.00
2013-3-11,63.0,59.3,54.4,53.3,49.3,47.5,95,70,58,29.92,29.77,26,8,26,0.24
2013-3-12,54.9,47.5,33.5,37.3,34.8,30.6,90,62,46,30.15,29.93,18,6,20,0.20
2013-3-13,50.1,43.9,35.0,32.8,26.8,21.9,79,52,37,30.36,30.12,27,8,27,0.00
2013-3-14,55.2,41.3,28.6,28.8,20.9,12.1,74,48,22,30.42,30.24,16,4,16,0.00
2013-3-15,74.0,58.0,37.5,48.0,37.1,21.2,70,46,35,30.24,29.92,23,6,23,0.00
2013-3-16,74.3,63.5,53.2,48.8,45.2,42.3,71,53,35,29.97,29.84,23,6,24,0.00
2013-3-17,67.8,61.1,54.0,55.8,51.5,45.7,91,72,54,29.97,29.84,18,5,18,0.00
2013-3-18,70.3,59.5,53.7,63.0,56.2,51.7,95,89,76,29.87,29.69,43,7,44,0.36
2013-3-19,60.7,50.5,38.2,52.5,35.7,24.6,94,61,32,30.11,29.87,21,6,21,0.00
2013-3-20,56.5,46.8,38.5,30.4,25.8,13.9,69,45,26,30.15,29.96,28,5,28,0.00
2013-3-21,46.0,37.6,27.8,30.2,20.6,11.5,81,52,29,30.08,29.94,16,4,18,0.00
2013-3-22,46.7,43.5,37.0,40.4,31.5,22.7,91,63,51,30.06,29.95,12,3,12,0.14
2013-3-23,55.2,48.6,42.7,51.4,46.6,40.3,97,93,86,29.97,29.68,18,6,20,1.27
2013-3-24,61.4,51.2,39.0,55.1,46.3,28.7,98,84,60,29.77,29.45,39,9,39,0.90
2013-3-25,39.4,35.9,33.4,29.3,26.4,23.5,80,69,55,30.14,29.76,31,12,31,0.00
2013-3-26,39.9,35.7,32.6,30.3,28.0,26.1,83,73,62,30.35,30.12,24,7,24,0.00
2013-3-27,51.9,41.0,29.3,31.7,28.6,24.9,87,63,39,30.40,30.28,19,4,19,0.00
2013-3-28,61.2,46.8,31.4,36.7,32.1,27.4,94,61,32,30.36,30.25,16,2,18,0.00
2013-3-29,66.5,53.1,35.6,42.8,36.8,33.0,91,57,31,30.30,30.13,18,3,18,0.00
2013-3-30,69.0,56.0,47.2,56.1,48.3,39.0,98,77,50,30.16,29.94,23,2,23,0.63
2013-3-31,67.5,59.7,55.7,60.4,56.7,54.7,98,91,68,29.94,29.82,21,4,22,0.22
2013-4-1,69.2,58.9,51.5,57.6,49.5,42.2,99,74,40,30.05,29.84,19,4,19,0.00
2013-4-2,59.3,50.3,42.0,44.2,34.6,28.0,85,57,35,30.20,30.04,15,4,15,0.00
2013-4-3,55.2,47.5,41.6,44.8,35.9,25.6,92,66,39,30.18,30.08,18,7,18,0.25
2013-4-4,46.5,44.0,41.8,44.7,42.2,40.2,96,93,91,30.10,29.95,26,8,28,0.66
2013-4-5,65.0,52.5,41.9,48.9,42.1,37.2,98,72,37,30.09,29.98,23,4,23,0.16
2013-4-6,72.5,57.9,38.1,49.3,40.7,36.3,95,57,30,30.15,30.02,16,4,19,0.00
2013-4-7,74.2,62.8,49.1,53.6,47.7,39.3,80,59,42,30.13,29.98,19,4,19,0.00
2013-4-8,76.8,66.7,56.8,61.7,55.3,50.8,90,68,46,30.06,29.96,20,5,20,0.00
2013-4-9,80.5,69.6,55.3,61.6,57.5,52.8,95,67,46,30.12,29.96,20,4,20,0.00
2013-4-10,81.8,75.3,61.6,64.0,59.2,56.7,85,58,46,30.04,29.82,19,5,19,0.00
2013-4-11,76.5,67.3,60.5,66.6,61.9,57.9,97,83,68,29.84,29.49,27,6,27,1.63
2013-4-12,64.5,54.8,45.9,59.5,44.5,37.4,97,71,39,29.97,29.64,22,6,22,0.01
2013-4-13,72.5,58.7,43.6,48.7,43.3,37.4,96,61,30,30.07,29.94,14,2,14,0.00
2013-4-14,60.2,55.3,46.9,54.5,48.3,39.9,94,79,49,30.00,29.84,22,4,24,0.06
2013-4-15,74.5,64.2,56.2,63.3,58.9,54.5,96,84,64,30.05,29.88,15,3,15,0.00
2013-4-16,80.9,70.8,62.9,69.1,63.9,59.2,90,80,62,30.16,30.03,16,4,16,0.00
2013-4-17,83.9,73.4,66.6,70.0,65.6,62.6,91,77,56,30.14,29.99,20,3,20,0.00
2013-4-18,80.4,71.5,63.3,65.2,61.6,57.5,95,73,49,29.99,29.68,28,7,28,0.00
2013-4-19,72.9,52.6,42.7,66.3,47.0,34.8,96,82,62,30.14,29.64,33,9,33,1.05
2013-4-20,61.9,48.8,33.7,41.4,36.0,31.4,97,65,35,30.25,30.14,18,3,18,0.00
2013-4-21,67.8,54.6,39.7,46.0,39.4,34.4,89,59,34,30.31,30.19,16,3,16,0.00
2013-4-22,69.5,59.8,51.0,52.7,46.8,42.0,79,63,47,30.26,30.08,21,4,21,0.00
2013-4-23,73.0,62.2,52.3,54.8,48.7,39.1,79,62,47,30.17,30.00,18,4,18,0.00
2013-4-24,66.5,57.8,47.1,62.2,54.1,43.1,97,88,72,30.22,29.97,18,5,18,0.19
2013-4-25,66.3,52.1,39.3,43.8,39.3,33.7,95,65,34,30.35,30.20,15,4,15,0.00
2013-4-26,73.5,50.8,39.3,50.1,39.5,33.7,90,69,29,30.35,30.20,14,2,16,0.00
2013-4-27,74.2,62.9,55.1,62.7,56.1,46.6,96,79,56,30.25,29.99,20,6,25,0.15
2013-4-28,66.4,60.9,57.1,65.4,59.7,56.4,98,96,90,30.01,29.87,20,4,20,2.05
2013-4-29,72.2,62.7,54.8,60.2,56.8,53.5,99,83,55,30.00,29.89,11,2,11,0.00
2013-4-30,77.9,65.0,48.1,61.9,55.3,47.3,99,74,42,30.01,29.91,12,2,12,0.00
2013-5-1,69.9,65.9,62.4,61.3,58.9,54.8,92,78,69,30.10,29.99,22,6,22,0.00
2013-5-2,67.2,62.8,57.4,60.8,57.7,53.9,88,84,77,30.12,30.03,20,6,23,0.00
2013-5-3,71.3,62.6,59.1,60.2,57.5,56.4,94,84,64,30.03,29.83,30,8,30,0.13
2013-5-4,59.1,47.7,43.7,57.4,46.7,41.8,98,97,92,29.95,29.82,15,4,25,2.41
2013-5-5,61.6,50.0,43.8,52.6,47.7,43.3,99,92,63,29.89,29.77,16,3,16,0.74
2013-5-6,54.7,50.1,47.4,52.0,49.3,46.8,99,97,88,29.90,29.75,13,2,13,2.09
2013-5-7,68.6,56.7,47.0,56.5,51.0,46.5,99,83,54,29.98,29.88,16,3,16,0.00
2013-5-8,76.2,64.3,51.8,62.3,56.7,50.7,98,78,54,30.05,29.96,14,3,14,0.00
2013-5-9,80.8,68.9,54.4,64.5,59.1,53.2,99,74,46,30.09,29.98,13,2,13,0.00
2013-5-10,73.5,66.8,62.7,62.3,59.2,56.7,91,77,59,30.03,29.90,24,4,24,0.03
2013-5-11,74.2,65.3,56.9,66.6,62.2,53.6,97,90,71,29.98,29.88,16,2,16,0.71
2013-5-12,65.0,57.0,46.1,53.7,43.7,35.5,97,65,35,30.14,29.98,18,4,18,0.00
2013-5-13,68.1,55.6,39.7,48.0,42.5,35.9,97,65,36,30.26,30.12,19,2,19,0.00
2013-5-14,79.8,65.1,46.3,60.8,53.4,45.1,98,69,45,30.20,30.05,20,3,20,0.00
2013-5-15,65.1,62.8,60.9,56.2,55.6,55.1,82,77,73,30.07,30.06,7,0,7,0.00
2013-5-16,81.3,70.8,62.0,68.0,60.6,56.7,91,72,47,30.03,29.94,6,2,16,0.00
2013-5-17,76.6,69.8,65.4,68.0,65.2,60.2,97,86,70,30.02,29.92,21,3,21,0.70
2013-5-18,77.5,70.8,65.5,72.7,69.0,64.6,98,94,83,30.01,29.93,16,3,16,0.18
2013-5-19,79.5,72.1,62.6,74.2,69.2,60.5,98,91,73,30.04,29.93,22,4,22,0.03
2013-5-20,82.0,71.5,60.5,72.6,66.3,59.4,98,84,66,30.05,29.94,11,2,11,0.00
2013-5-21,86.0,75.7,63.7,74.4,68.6,62.3,99,80,57,29.99,29.81,16,2,16,0.00
2013-5-22,82.2,73.3,66.8,71.0,67.7,64.0,96,83,62,29.90,29.81,29,3,29,0.10
2013-5-23,81.5,72.1,64.1,69.0,63.1,57.5,99,76,47,30.01,29.87,22,4,22,0.01
2013-5-24,73.0,64.4,53.2,58.5,52.8,46.4,90,68,41,30.23,30.00,22,4,22,0.00
2013-5-25,77.0,63.1,48.2,54.8,48.7,34.7,93,63,23,30.29,30.15,14,2,14,0.00
2013-5-26,83.7,68.4,50.1,60.8,54.8,49.0,98,66,32,30.22,30.10,11,1,11,0.00
2013-5-27,83.5,71.8,56.8,66.7,61.2,55.1,96,71,47,30.16,30.03,18,3,18,0.00
2013-5-28,83.8,74.3,63.9,66.3,62.8,59.2,86,68,50,30.11,30.01,15,4,15,0.00
2013-5-29,84.3,75.1,64.7,71.3,64.5,59.0,83,70,52,30.12,30.01,16,3,16,0.00
2013-5-30,82.0,73.5,68.5,71.2,67.2,63.2,88,81,65,30.14,30.01,14,3,14,0.00
2013-5-31,83.1,75.9,69.4,71.5,67.6,65.5,88,76,59,30.09,29.96,16,4,16,0.00
2013-6-1,84.3,74.9,68.1,74.8,69.2,64.4,97,83,68,30.00,29.90,23,4,23,0.18
2013-6-2,79.3,72.9,69.9,72.5,70.1,66.2,98,91,67,29.93,29.86,14,3,14,0.00
2013-6-3,80.3,73.2,63.6,70.5,67.2,63.0,99,83,60,29.93,29.85,12,4,12,0.01
2013-6-4,84.5,77.1,59.7,68.0,64.9,58.6,98,67,51,29.98,29.90,11,2,12,0.00
2013-6-5,78.2,70.5,66.0,74.8,68.2,63.0,98,92,83,29.95,29.79,21,2,21,0.23
2013-6-6,68.8,66.9,65.2,68.4,66.2,64.5,99,98,97,29.85,29.80,7,0,7,0.00
2013-6-7,78.3,70.3,66.1,71.9,68.9,65.5,99,95,76,29.84,29.66,20,2,20,0.37
2013-6-8,81.7,72.2,64.6,71.3,65.9,62.6,100,83,54,30.00,29.83,14,2,14,0.01
2013-6-9,82.0,73.4,68.9,74.0,69.7,66.7,98,89,68,30.02,29.88,19,4,19,0.34
2013-6-10,84.7,75.3,66.8,72.1,68.5,65.9,99,81,56,29.95,29.86,18,4,18,0.37
2013-6-11,89.8,80.4,72.1,76.6,73.0,69.3,96,79,57,30.00,29.91,19,4,19,0.00
2013-6-12,91.7,81.5,72.6,79.1,73.6,68.3,98,79,50,30.02,29.91,18,2,18,0.00
2013-6-13,89.3,80.3,71.7,78.4,73.9,66.8,97,82,66,29.92,29.73,28,5,28,0.01
2013-6-14,71.8,69.1,66.9,66.9,66.1,65.2,95,90,85,29.84,29.83,9,1,9,0.00
2013-6-15,85.3,75.5,58.9,68.5,64.9,58.0,98,71,51,30.06,29.97,9,1,16,0.00
2013-6-16,86.8,74.9,67.0,76.1,68.3,62.5,98,81,65,30.07,29.93,24,3,24,0.34
2013-6-17,84.6,73.3,68.6,77.4,70.9,67.2,99,93,73,29.98,29.86,23,2,23,0.98
2013-6-18,81.0,73.4,68.6,74.8,70.5,67.3,99,91,76,29.90,29.81,24,4,24,0.31
2013-6-19,84.5,74.2,65.5,72.2,68.1,64.5,99,83,53,30.02,29.89,12,1,13,0.00
2013-6-20,77.0,69.1,65.9,70.8,67.3,65.2,99,94,77,30.11,30.01,11,1,11,0.00
2013-6-21,84.4,77.3,64.5,71.6,67.3,63.0,98,73,52,30.18,30.07,12,2,13,0.00
2013-6-22,84.3,75.1,66.3,70.5,66.0,62.8,96,75,49,30.17,30.02,13,2,13,0.00
2013-6-23,85.7,75.5,64.0,72.8,68.3,62.6,96,80,58,30.13,30.02,12,2,13,0.00
2013-6-24,86.0,76.4,69.5,74.6,71.4,68.2,97,85,64,30.16,30.03,16,2,16,0.00
2013-6-25,87.2,78.3,71.2,74.9,72.4,70.2,98,83,61,30.10,29.97,12,2,12,0.00
2013-6-26,88.9,82.8,69.2,76.0,73.8,68.4,99,75,60,30.01,29.86,16,4,16,0.00
2013-6-27,90.2,79.7,69.7,80.5,72.8,66.8,95,81,55,29.92,29.76,23,4,23,0.06
2013-6-28,87.0,78.2,71.4,76.9,72.0,68.3,98,82,54,29.80,29.64,20,3,20,0.00
2013-6-29,86.2,78.4,71.7,72.2,66.1,57.3,97,69,39,29.67,29.61,15,2,15,0.00
2013-6-30,86.6,74.8,62.6,68.5,63.4,56.8,97,71,37,29.74,29.65,16,2,16,0.00
2013-7-1,84.5,73.5,63.6,70.0,66.1,62.7,98,80,50,29.86,29.71,14,2,14,0.00
2013-7-2,83.8,73.7,63.0,70.9,67.2,61.9,98,81,55,29.94,29.84,13,2,13,0.00
2013-7-3,78.5,71.4,67.5,72.9,69.0,66.6,98,92,81,30.06,29.97,12,3,13,0.17
2013-7-4,76.8,71.5,69.2,72.7,69.5,67.8,98,94,75,30.05,29.97,16,4,24,0.69
2013-7-5,73.3,71.4,69.1,72.0,70.3,68.2,98,96,91,30.11,30.01,15,3,15,0.51
2013-7-6,73.0,70.9,69.3,72.0,70.2,68.7,99,98,95,30.09,30.02,9,1,9,1.23
2013-7-7,83.1,75.4,70.5,75.0,72.1,70.2,99,90,70,30.10,30.03,13,2,13,0.01
2013-7-8,82.9,75.1,69.7,76.6,72.8,69.1,99,93,75,30.14,30.05,12,1,13,0.46
2013-7-9,88.1,78.2,71.8,78.2,74.2,71.5,99,89,63,30.14,30.00,9,1,9,0.00
2013-7-10,88.2,79.2,69.7,77.9,74.4,68.8,99,86,65,30.04,29.88,25,3,25,1.19
2013-7-11,85.3,75.6,69.7,76.5,72.4,69.1,99,90,69,29.96,29.81,10,1,12,0.27
2013-7-12,84.9,75.5,67.9,75.3,69.8,64.5,98,84,65,29.92,29.83,12,2,14,0.00
2013-7-13,82.5,72.8,61.8,74.5,68.6,61.1,98,87,72,30.00,29.89,14,3,14,0.00
2013-7-14,84.0,76.2,70.8,75.2,71.9,69.3,97,87,70,30.10,29.97,19,4,19,0.03
2013-7-15,85.5,77.5,72.4,74.7,71.6,69.8,96,83,61,30.21,30.09,18,5,18,0.09
2013-7-16,86.7,76.8,71.3,74.8,71.7,69.1,97,86,58,30.26,30.17,15,3,15,0.00
2013-7-17,90.2,79.4,68.9,78.1,72.9,68.3,99,82,60,30.24,30.10,9,2,11,0.00
2013-7-18,86.8,78.9,70.2,74.4,71.7,68.9,97,80,60,30.14,30.00,12,2,12,0.00
2013-7-19,89.9,79.1,68.5,75.8,72.2,67.9,99,81,56,30.07,29.91,11,1,11,0.00
2013-7-20,85.9,76.5,69.4,77.4,72.8,68.5,99,89,66,29.98,29.86,24,1,24,0.53
2013-7-21,85.7,75.5,69.8,77.4,72.2,69.1,99,90,69,29.98,29.89,22,2,22,0.12
2013-7-22,82.3,74.8,68.8,75.8,71.4,68.0,99,90,72,29.95,29.83,16,3,16,0.01
2013-7-23,74.4,71.4,69.1,73.2,70.5,67.9,99,97,93,29.95,29.82,16,2,16,2.69
2013-7-24,83.8,74.5,68.9,75.4,72.1,68.6,100,93,69,29.88,29.79,10,1,10,0.05
2013-7-25,83.2,74.9,67.9,72.4,68.5,63.6,99,82,57,29.98,29.83,13,2,13,0.01
2013-7-26,85.8,73.1,62.8,72.5,67.7,62.1,99,85,54,30.02,29.92,10,1,11,0.00
2013-7-27,83.0,74.6,67.9,72.1,69.0,62.9,99,84,54,29.94,29.85,13,2,13,0.00
2013-7-28,83.7,75.5,68.5,73.4,69.9,66.8,97,84,63,30.02,29.87,10,2,10,0.00
2013-7-29,80.2,70.9,63.1,67.0,63.5,59.5,97,79,54,30.14,30.01,8,1,8,0.00
2013-7-30,89.3,74.7,59.6,74.3,66.3,59.0,99,78,48,30.17,30.03,9,1,9,0.05
2013-7-31,82.6,74.1,69.0,76.3,71.4,68.2,98,91,77,30.09,29.91,15,3,15,1.16
2013-8-1,84.9,75.5,68.6,74.9,71.1,68.0,99,87,64,29.96,29.89,11,2,13,0.01
2013-8-2,86.0,74.9,64.8,72.4,67.7,62.4,99,81,47,30.00,29.91,9,0,9,0.01
2013-8-3,83.9,74.4,64.5,76.3,71.0,63.9,99,90,70,30.02,29.95,11,1,15,0.01
2013-8-4,85.6,76.0,68.1,74.7,71.9,66.7,99,88,66,30.03,29.94,12,2,16,0.00
2013-8-5,81.2,73.3,66.4,71.6,66.7,61.2,98,81,55,30.03,29.93,0,0,0,0.00
2013-8-6,81.5,73.7,68.8,75.7,71.4,65.7,98,93,76,30.00,29.90,8,0,8,0.18
2013-8-7,87.5,75.7,70.2,78.6,73.2,69.3,99,92,70,29.97,29.89,27,2,27,1.23
2013-8-8,88.2,75.7,68.8,80.4,72.8,68.3,99,91,71,29.99,29.90,20,2,20,0.03
2013-8-9,88.5,78.4,69.3,78.2,74.1,69.0,99,88,66,30.02,29.94,9,2,12,0.01
2013-8-10,84.1,75.5,70.4,78.8,73.6,70.1,99,94,81,30.09,30.00,9,1,20,0.27
2013-8-11,88.0,78.1,70.0,78.8,74.0,69.6,100,88,65,30.11,30.01,12,1,13,0.07
2013-8-12,87.6,78.1,70.8,78.2,73.9,69.9,99,88,67,30.07,29.93,12,2,12,0.12
2013-8-13,84.7,77.6,72.0,76.3,73.1,71.1,97,87,69,29.94,29.84,13,3,13,0.03
2013-8-14,80.2,72.9,63.7,73.1,67.9,61.8,97,85,57,29.98,29.87,13,3,13,0.00
2013-8-15,76.8,68.9,62.5,69.3,64.2,60.7,95,85,70,30.02,29.94,13,3,13,0.00
2013-8-16,69.6,67.0,64.7,65.0,63.0,60.4,95,87,80,30.06,29.97,15,3,15,0.00
2013-8-17,69.3,66.2,64.2,65.2,64.0,62.0,98,93,85,30.08,30.00,15,3,15,0.00
2013-8-18,75.2,70.0,65.6,70.2,67.8,65.0,99,93,83,30.12,30.03,13,2,14,0.10
2013-8-19,84.4,74.7,68.3,75.1,71.1,67.7,99,89,67,30.07,29.96,11,2,11,0.07
2013-8-20,81.8,75.4,71.2,75.7,72.9,69.8,98,92,80,30.11,30.01,11,1,11,0.06
2013-8-21,86.5,75.4,69.3,76.0,72.4,68.8,99,91,65,30.14,30.05,15,2,15,0.35
2013-8-22,84.9,76.2,68.1,77.0,72.7,67.6,99,90,72,30.13,29.99,14,1,14,0.00
2013-8-23,87.9,76.7,67.1,77.3,71.9,66.8,100,87,59,30.05,29.93,9,1,9,0.00
2013-8-24,78.7,75.4,67.5,73.1,71.5,67.0,99,88,82,30.11,30.00,0,0,0,0.01
2013-8-25,80.2,76.5,64.8,73.1,71.1,63.0,95,84,70,30.28,30.10,6,0,16,0.01
2013-8-26,82.5,70.9,59.5,69.8,63.8,58.7,99,80,55,30.27,30.11,0,0,0,0.00
2013-8-27,84.3,72.6,60.0,71.6,66.5,59.4,100,83,56,30.13,30.01,11,1,11,0.00
2013-8-28,87.3,76.1,65.2,75.2,70.3,64.6,100,84,59,30.04,29.96,12,1,12,0.00
2013-8-29,88.6,78.7,69.2,75.8,72.3,68.3,98,82,61,30.01,29.91,14,2,14,0.00
2013-8-30,88.1,77.2,70.4,79.4,73.7,69.3,99,89,67,29.96,29.87,11,1,12,0.04
2013-8-31,90.0,78.9,69.8,79.5,74.0,69.2,100,86,58,29.92,29.80,9,1,9,0.01
2013-9-1,88.4,78.9,72.4,77.4,73.5,71.2,97,85,61,29.89,29.79,15,2,15,0.01
2013-9-2,85.0,75.2,67.4,74.6,71.2,66.5,99,88,63,29.96,29.81,13,2,19,1.94
2013-9-3,86.1,76.7,66.5,75.5,70.6,65.4,98,83,54,29.96,29.84,12,2,12,0.00
2013-9-4,85.2,73.5,62.0,70.3,66.2,61.4,99,80,52,30.07,29.94,11,0,11,0.01
2013-9-5,85.1,72.5,62.7,71.1,66.2,62.0,99,82,55,30.11,30.03,8,1,8,0.00
2013-9-6,88.2,74.2,63.3,73.8,68.2,62.4,99,84,54,30.11,30.00,1,0,1,0.00
2013-9-7,86.6,75.3,65.0,74.7,69.5,64.4,99,84,58,30.07,29.96,9,1,9,0.00
2013-9-8,87.5,75.7,63.4,74.9,69.7,62.7,99,84,57,29.99,29.90,0,0,0,0.00
2013-9-9,88.8,76.4,67.2,75.8,71.5,66.6,99,86,59,30.04,29.94,0,0,0,0.00
2013-9-10,88.0,77.9,70.1,75.7,71.7,68.2,98,83,58,30.15,30.04,1,0,4,0.00
2013-9-11,73.6,70.9,68.4,70.8,69.2,67.3,98,95,91,30.12,30.11,0,0,0,0.00
2013-9-12,88.2,79.3,65.0,73.5,69.4,64.4,99,74,49,30.05,29.88,12,0,12,0.04
2013-9-13,81.8,74.4,68.4,70.7,66.0,55.1,99,78,46,29.90,29.83,18,2,18,0.00
2013-9-14,77.4,65.4,51.8,60.3,57.3,50.7,97,77,46,30.02,29.91,8,0,13,0.00
2013-9-15,83.3,68.4,57.0,68.7,62.1,55.4,98,83,50,30.11,30.01,14,2,14,0.01
2013-9-16,85.2,70.3,56.7,69.5,61.0,56.0,99,76,40,30.13,30.04,14,1,14,0.00
2013-9-17,80.9,71.2,61.5,71.0,65.8,60.6,98,84,70,30.14,30.06,12,3,16,0.00
2013-9-18,80.6,70.7,64.0,69.2,64.3,60.5,90,81,66,30.16,30.06,14,3,14,0.00
2013-9-19,83.0,72.1,61.6,69.1,64.6,60.5,97,79,58,30.14,30.01,10,2,10,0.00
2013-9-20,84.5,74.0,63.1,68.9,66.0,61.9,98,78,51,30.02,29.81,12,3,12,0.01
2013-9-21,72.3,68.0,58.5,71.4,66.4,57.5,98,95,89,29.81,29.70,21,4,21,2.09
2013-9-22,77.5,63.5,52.6,60.8,56.9,52.0,99,81,48,29.87,29.78,16,2,16,0.01
2013-9-23,80.3,65.9,50.7,66.2,58.9,50.2,100,81,51,29.95,29.85,13,2,13,0.01
2013-9-24,69.4,66.5,63.3,66.9,64.6,61.4,97,93,90,29.95,29.81,18,3,18,0.00
2013-9-25,74.2,67.6,63.5,69.7,65.8,62.2,98,94,84,29.84,29.76,10,1,10,0.01
2013-9-26,79.3,68.9,60.9,67.0,63.9,60.0,98,85,60,29.97,29.83,10,1,11,0.00
2013-9-27,79.3,66.6,55.9,66.0,59.5,55.6,100,81,47,30.10,29.97,11,1,14,0.00
2013-9-28,77.1,65.4,56.1,61.0,58.1,55.5,99,80,50,30.18,30.05,18,2,18,0.01
2013-9-29,72.8,63.8,54.3,62.9,57.7,52.6,97,81,62,30.11,29.98,12,1,12,0.00
2013-9-30,70.6,66.4,57.3,61.0,59.3,55.8,96,79,70,30.05,29.96,8,4,11,0.00
2013-10-1,82.0,71.1,58.3,68.8,63.8,57.0,98,79,60,30.11,30.00,11,3,11,0.00
2013-10-2,82.4,69.9,59.5,68.5,64.0,58.9,99,83,53,30.12,30.02,7,0,7,0.00
2013-10-3,82.7,72.0,63.4,67.6,64.7,62.0,98,80,53,30.08,29.99,13,1,13,0.00
2013-10-4,83.7,71.8,61.1,71.1,66.0,60.5,99,83,59,30.11,30.02,15,1,15,0.00
2013-10-5,85.0,73.3,61.8,70.9,66.4,60.9,99,80,57,30.07,29.92,12,1,12,0.00
2013-10-6,79.3,70.7,57.0,70.7,66.5,55.3,98,87,72,29.92,29.77,15,3,22,0.35
2013-10-7,70.3,59.7,52.9,55.5,52.6,49.9,98,79,50,30.02,29.85,18,4,18,0.01
2013-10-8,75.9,63.5,50.0,62.9,55.5,47.4,92,76,57,30.06,29.96,16,4,16,0.00
2013-10-9,77.0,65.8,58.3,59.6,55.0,47.4,95,70,50,30.16,30.05,18,3,18,0.00
2013-10-10,79.5,65.5,54.1,63.9,58.9,53.4,99,82,49,30.12,29.99,11,1,11,0.00
2013-10-11,78.5,66.4,51.4,62.2,58.1,51.1,99,77,50,30.06,29.97,14,1,14,0.00
2013-10-12,79.2,64.2,51.0,62.7,57.4,50.5,99,81,51,30.08,29.98,20,1,20,0.00
2013-10-13,80.5,66.5,55.6,62.1,57.7,55.0,99,77,42,30.18,30.08,13,2,16,0.00
2013-10-14,78.5,66.0,54.4,66.3,60.4,53.6,99,84,60,30.19,30.05,11,1,11,0.00
2013-10-15,69.0,63.6,57.1,62.7,60.3,56.3,99,89,75,30.09,30.00,12,1,12,0.00
2013-10-16,71.5,64.8,59.5,65.6,62.3,58.2,98,92,78,30.02,29.89,11,1,11,0.09
2013-10-17,67.8,63.4,52.4,66.8,62.0,51.4,98,95,89,29.97,29.84,15,3,15,0.04
2013-10-18,67.2,56.5,48.3,54.0,51.4,47.3,99,85,54,30.06,29.93,12,1,12,0.00
2013-10-19,69.5,57.5,46.6,57.3,52.9,45.0,98,86,60,30.01,29.89,18,2,18,0.00
2013-10-20,65.8,49.9,36.0,46.5,40.6,32.3,99,76,29,30.08,30.00,8,1,11,0.01
2013-10-21,71.4,53.5,35.5,52.4,45.0,34.9,99,77,36,30.11,29.99,11,1,11,0.00
2013-10-22,69.2,59.3,51.8,56.7,53.5,50.6,96,82,54,29.99,29.85,13,2,13,0.00
2013-10-23,57.5,49.8,39.2,50.6,42.0,35.8,96,77,47,30.10,29.85,22,3,22,0.01
2013-10-24,63.7,48.1,34.7,45.0,40.6,33.7,99,78,43,30.26,30.10,16,2,16,0.00
2013-10-25,53.1,42.2,31.8,37.6,31.1,25.8,94,67,36,30.45,30.26,19,3,19,0.00
2013-10-26,62.5,44.3,26.8,40.2,32.9,25.7,98,70,29,30.34,30.13,13,1,13,0.00
2013-10-27,66.2,55.7,42.7,54.7,48.9,38.9,94,79,58,30.14,30.07,9,1,9,0.00
2013-10-28,66.7,58.5,52.8,59.5,55.8,52.0,98,91,75,30.24,30.08,9,1,9,0.06
2013-10-29,75.4,62.7,51.5,62.8,58.0,50.9,99,86,62,30.28,30.17,13,1,13,0.00
2013-10-30,77.2,66.6,56.5,62.5,58.9,55.4,98,78,51,30.25,30.07,10,2,14,0.00
2013-10-31,73.1,66.7,61.5,67.1,61.9,55.9,96,85,76,30.07,29.70,30,6,30,0.07
2013-11-1,71.4,63.1,52.8,66.0,55.2,46.4,97,77,46,29.84,29.68,21,4,21,0.11
2013-11-2,65.5,54.5,46.6,51.8,44.1,38.5,95,70,40,30.10,29.82,18,3,22,0.00
2013-11-3,61.6,48.6,37.9,44.2,39.2,34.6,97,73,38,30.27,30.09,13,2,13,0.00
2013-11-4,65.7,53.5,37.9,43.1,40.0,36.3,95,63,36,30.39,30.25,22,4,22,0.00
2013-11-5,63.1,54.0,46.5,44.5,40.3,37.0,72,60,49,30.40,30.26,19,4,20,0.00
2013-11-6,70.4,61.8,51.9,60.7,56.0,43.6,93,82,70,30.26,30.02,19,4,19,0.05
2013-11-7,62.5,57.9,48.5,61.5,57.0,47.6,98,97,94,30.14,30.00,22,3,22,0.36
2013-11-8,58.6,44.9,32.9,37.1,31.2,24.4,91,63,27,30.38,30.23,11,1,19,0.00
2013-11-9,58.9,47.9,34.8,44.1,37.3,28.8,92,68,40,30.33,30.20,13,1,13,0.00
2013-11-10,68.7,54.4,44.4,47.9,42.6,36.9,96,67,39,30.31,30.20,14,2,14,0.00
2013-11-11,69.5,50.3,33.5,38.3,32.3,21.1,96,58,17,30.30,30.15,9,1,9,0.00
2013-11-12,52.7,42.1,30.6,44.8,30.6,15.4,89,65,44,30.52,30.14,28,7,28,0.00
2013-11-13,49.0,35.2,25.0,23.6,19.1,14.9,82,55,26,30.64,30.46,20,3,20,0.00
2013-11-14,57.6,41.8,21.1,30.5,21.9,15.9,92,51,20,30.49,30.23,9,1,12,0.00
2013-11-15,55.7,49.6,40.5,50.5,42.2,24.5,98,77,52,30.25,30.06,14,2,14,0.11
2013-11-16,65.6,57.6,49.7,59.4,55.1,49.2,98,92,80,30.16,30.01,15,4,15,0.00
2013-11-17,70.1,64.9,59.5,69.2,63.8,57.4,99,96,91,30.02,29.82,18,5,18,0.29
2013-11-18,69.9,58.6,47.4,69.0,43.7,30.8,97,60,27,30.11,29.86,23,5,23,0.00
2013-11-19,55.5,46.4,36.5,33.6,29.4,22.9,77,52,29,30.20,30.08,22,6,22,0.00
2013-11-20,58.9,49.4,36.1,38.8,34.6,29.3,78,57,45,30.26,30.13,20,5,23,0.00
2013-11-21,63.2,55.7,50.9,53.4,46.9,38.6,85,72,60,30.32,30.20,16,4,16,0.00
2013-11-22,64.7,57.9,53.3,60.3,55.6,50.0,98,92,82,30.27,30.15,13,2,13,0.02
2013-11-23,53.3,45.9,32.7,52.5,40.1,22.0,97,81,52,30.38,30.17,22,7,22,0.01
2013-11-24,42.1,32.0,25.7,24.8,17.5,13.5,76,57,34,30.56,30.37,22,6,22,0.00
2013-11-25,41.3,35.7,25.9,36.4,23.5,13.0,96,63,40,30.43,30.13,20,5,21,0.72
2013-11-26,46.9,41.6,36.1,46.4,40.9,34.7,99,97,95,30.13,29.75,23,6,23,2.37
2013-11-27,36.0,32.0,24.0,34.7,24.4,15.3,95,74,55,30.37,29.82,27,7,27,0.01
2013-11-28,44.0,30.2,18.8,23.0,19.0,15.3,90,66,32,30.50,30.36,8,1,8,0.00
2013-11-29,55.4,37.8,22.0,30.2,25.4,19.9,94,66,28,30.58,30.45,12,1,12,0.00
2013-11-30,53.2,43.9,33.5,32.6,30.3,27.1,78,60,42,30.52,30.27,16,2,16,0.00
2013-12-1,57.1,46.1,31.5,41.0,35.8,27.7,89,68,47,30.27,29.96,10,2,10,0.00
2013-12-2,53.1,49.6,45.4,52.0,48.3,40.8,99,95,71,29.96,29.77,9,2,10,0.39
2013-12-3,58.9,54.5,48.1,58.8,54.1,47.5,100,99,97,29.83,29.76,11,2,11,0.01
2013-12-4,71.7,64.8,58.9,65.2,62.5,58.6,100,93,76,29.93,29.82,21,5,21,0.00
2013-12-5,74.0,68.1,60.5,69.5,66.7,58.1,98,95,84,29.99,29.87,15,4,18,0.01
2013-12-6,59.8,47.0,37.7,58.1,46.6,37.1,100,99,94,30.21,29.89,16,3,16,0.61
2013-12-7,39.6,37.0,35.0,38.5,35.6,33.9,98,95,91,30.40,30.20,19,6,19,0.00
2013-12-8,50.4,46.4,39.5,50.1,46.0,38.6,99,99,96,30.26,30.05,15,3,15,1.09
2013-12-9,51.2,46.7,42.3,49.5,46.3,41.4,100,98,93,30.15,30.00,16,3,16,0.68
2013-12-10,41.9,35.4,27.7,41.9,33.0,26.8,100,91,70,30.38,29.98,20,4,20,0.39
2013-12-11,54.4,36.8,22.9,36.5,28.3,21.8,98,74,38,30.46,30.35,9,1,9,0.00
2013-12-12,34.5,31.5,28.7,28.0,27.1,25.6,90,84,75,30.49,30.42,8,2,8,0.00
2013-12-13,50.4,41.9,23.6,32.0,26.5,20.9,92,56,36,30.42,30.10,10,1,10,0.00
2013-12-14,54.4,48.7,39.1,53.8,45.5,30.1,99,90,54,30.11,29.78,21,5,26,0.71
2013-12-15,39.0,35.2,32.3,37.2,32.7,29.8,95,90,83,30.26,29.94,20,5,20,0.00
2013-12-16,53.8,40.3,29.4,37.5,32.5,28.6,98,76,46,30.30,30.17,13,3,16,0.00
2013-12-17,60.7,48.0,34.2,40.1,36.3,30.5,93,65,44,30.25,30.08,23,4,23,0.00
2013-12-18,54.5,41.9,31.1,32.0,26.1,20.3,85,57,27,30.37,30.24,10,1,10,0.00
2013-12-19,60.9,45.9,29.6,34.2,30.3,25.6,88,58,32,30.30,30.12,15,2,15,0.00
2013-12-20,64.5,57.7,49.0,58.3,46.8,32.0,89,68,49,30.14,29.98,21,4,21,0.00
2013-12-21,71.8,66.0,60.4,67.9,63.8,58.1,98,93,87,29.99,29.75,30,8,30,0.06
2013-12-22,71.1,58.2,53.9,67.4,57.0,53.1,98,96,88,29.96,29.74,32,5,32,1.55
2013-12-23,53.4,38.1,31.8,53.0,34.8,28.3,99,88,81,30.40,30.03,21,6,22,0.03
2013-12-24,36.3,30.0,24.0,28.3,23.8,19.5,91,78,59,30.52,30.38,13,3,20,0.00
2013-12-25,47.7,33.5,19.8,30.1,25.0,17.9,93,73,48,30.46,30.32,19,2,19,0.00
2013-12-26,50.8,37.2,26.9,35.9,30.5,25.4,96,78,50,30.40,30.30,10,1,11,0.00
2013-12-27,54.6,38.7,25.6,35.2,29.8,24.2,97,74,39,30.47,30.35,11,1,11,0.00
2013-12-28,44.7,39.8,33.1,40.4,36.1,30.2,98,87,60,30.36,29.92,23,4,23,1.28
2013-12-29,50.5,43.4,40.8,45.2,42.0,39.6,99,95,80,30.07,29.89,12,2,12,0.10
2013-12-30,44.6,40.3,35.9,42.6,38.2,34.6,98,93,84,30.26,30.06,11,2,11,0.00
2013-12-31,42.4,35.2,30.5,34.9,30.4,27.6,96,83,58,30.47,30.25,15,2,15,0.00
2014-1-1,50.1,39.1,28.3,40.8,33.6,26.8,96,81,60,30.35,30.05,13,2,13,0.00
2014-1-2,49.4,38.3,23.4,49.1,35.1,14.9,99,88,69,30.29,29.84,34,7,34,0.34